Погода в Хамме

Германия     51°40′43″N   7°49′02″E
темп.,
°C
ветер,
м/с
пор.,
м/с
влажн.,
%
обл.,
%
осадки,
мм/ч
давл.,
гПа
погр.,
м
24 сентября, пт
пт2423:00+14зсз5108787 0.2 1017494
02:00+14з51085100 0.2 1016547
05:00+14з4886100 0.1 1016457
08:00+15зюз4885100 0.1 1016384
11:00+16зюз5986100 0.1 1016579
14:00+20зюз686434 0.1 10151097
17:00+20зюз6865100 0.0 10141087
20:00+18зюз5976100 0.0 1015533
25 сентября, сб
сб2523:00+18юз487398 0.0 1016354
02:00+14юз37880 0.0 1016130
05:00+13юз38940 0.0 1016188
08:00+13юз37941 0.0 1016184
11:00+18зюз456112 0.0 1017554
14:00+22зюз33507 0.0 10161016
17:00+22зюз224610 0.0 10151264
20:00+16св116894 0.0 101613
26 сентября, вс
вс2623:00+14вюв227574 0.0 101617
02:00+14вюв22775 0.0 101621
05:00+13юв227581 0.0 101520
08:00+15юв2268100 0.0 101534
11:00+20ююз245814 0.0 1016394
14:00+24ю235257 0.0 10151184
17:00+25ю345080 0.0 10141605
20:00+19ю228150 1.6 101422
27 сентября, пн
пн2723:00+17ююз338999 0.3 101537
02:00+17юз3588100 1.3 1015123
05:00+17юз378740 0.0 1015217
08:00+15ю479111 0.0 1015130
11:00+20ююз6868100 0.0 1016544
14:00+21юз71062100 0.1 10161242
17:00+16зюз71183100 0.4 1019746
20:00+13зсз59863 0.5 1023454
28 сентября, вт
вт2823:00+10зсз129344 0.0 102513
02:00+10ююз1193100 0.0 102610
05:00+9ю2293100 0.0 102614
08:00+9ююв1191100 0.0 102612
11:00+14вюв2271100 0.0 1025449
14:00+16в3353100 0.0 10231011
17:00+16в3455100 0.0 1021864
20:00+13в4864100 0.0 1020155